This is the latest recevied weather packets stored in our database for station/object DD3UTS-13. If no packets are shown the sender has not sent any weather packets the latest 1 day(s).
| Time | Temp. | Humidity | Pressure | Rain* | Wind** | Luminosity | Snow |
|---|---|---|---|---|---|---|---|
| 1778097332 | 13.33° C | 79% | 1005.5 hPa | 0 mm | - | 0 W/m² | - |
| 1778096732 | 13.89° C | 79% | 1005.5 hPa | 0 mm | - | 0 W/m² | - |
| 1778096433 | 13.89° C | 78% | 1005.4 hPa | 0 mm | - | 0 W/m² | - |
| 1778095532 | 13.89° C | 77% | 1005.3 hPa | 0 mm | - | 0 W/m² | - |
| 1778094932 | 14.44° C | 76% | 1005.2 hPa | 0 mm | - | 0 W/m² | - |
| 1778094332 | 14.44° C | 75% | 1005 hPa | 0 mm | - | 0 W/m² | - |
| 1778091032 | 16.67° C | 67% | 1004.6 hPa | 0 mm | - | 12 W/m² | - |
| 1778090432 | 17.22° C | 64% | 1004.5 hPa | 0 mm | - | 21 W/m² | - |
| 1778089532 | 18.33° C | 60% | 1004.6 hPa | 0 mm | - | 51 W/m² | - |
| 1778086532 | 19.44° C | 55% | 1004.2 hPa | 0 mm | - | 150 W/m² | - |
| 1778085332 | 21.67° C | 51% | 1004.7 hPa | 0 mm | - | 475 W/m² | - |
| 1778084132 | 21.11° C | 53% | 1004.8 hPa | 0 mm | - | 525 W/m² | - |
| 1778083832 | 21.11° C | 53% | 1004.8 hPa | 0 mm | - | 526 W/m² | - |
| 1778082632 | 20° C | 55% | 1005 hPa | 0 mm | - | 450 W/m² | - |
| 1778082032 | 19.44° C | 58% | 1004.9 hPa | 0 mm | - | 352 W/m² | - |
| 1778081732 | 19.44° C | 59% | 1004.9 hPa | 0 mm | - | 372 W/m² | - |
| 1778081132 | 19.44° C | 60% | 1005.1 hPa | 0 mm | - | 450 W/m² | - |
| 1778080232 | 18.89° C | 60% | 1005.1 hPa | 0 mm | - | 369 W/m² | - |
| 1778079632 | 18.89° C | 58% | 1004.9 hPa | 0 mm | - | 189 W/m² | - |
| 1778079332 | 18.89° C | 59% | 1004.8 hPa | 0 mm | - | 200 W/m² | - |
| 1778079032 | 18.89° C | 57% | 1004.8 hPa | 0 mm | - | 211 W/m² | - |
| 1778078732 | 18.33° C | 53% | 1004.8 hPa | 0 mm | - | 361 W/m² | - |
| 1778078432 | 18.33° C | 53% | 1004.8 hPa | 0 mm | - | 184 W/m² | - |
| 1778077532 | 19.44° C | 52% | 1004.8 hPa | 0 mm | - | 203 W/m² | - |
| 1778076932 | 19.44° C | 53% | 1004.9 hPa | 0 mm | - | 227 W/m² | - |
* Rain latest 24 hours (hover to see other rain measurements)
** Current wind speed in m/s (hover to see current wind gust speed)